sat.trackr.live / text

‹ back to catalog

STARLINK-36969

NORAD 68167 · 2026-050A

PAYLOAD ACTIVE UNKNOWN

§ Identity

Operator
Country
US
Launch date
2026-03-14
Launch site
AFETR
Launch vehicle
Mass (kg)
RCS (m²)

Purposes: comms

External: N2YO · Heavens-Above · Gunter

§ Orbital elements

Epoch: 2026-05-24T18:42:36.721152Z

Period
93.58 min
Inclination
53.1556°
Eccentricity
0.0000721
Mean motion
15.38828593 rev/d
Perigee alt
449.1 km
Apogee alt
450.1 km
Semi-major
6,827.7 km
B*
8.7477e-4
RAAN
273.2760°
Arg perigee
120.6698°
Mean anomaly
239.4378°
Rev number
1,233

§ Raw data

STARLINK-369691 68167U 26050A   26144.77959168  .00033849  00000+0  87477-3 0  99922 68167  53.1556 273.2760 0000721 120.6698 239.4378 15.38828593 12331

JSON: /api/v1/satellites/68167 · /tle

For live sub-satellite position, see the globe view (requires WebGL).

§ Visibility from observer

Set your observer location to see the next 7 days of passes ≥ 10°. The values pass through the URL so the page stays shareable.

No JS? Fill the form by hand. The geolocation button needs JavaScript.